Regional Weather Roundup
Issued by NWS

Home | Current Version | Previous Version | Text Only | Print | Product List | Glossary Off
Versions: 1 2 3 4 5 6 7 8 9 10 11 12 13 14 15 16 17 18 19 20 21 22 23 24 25 26 27 28 29 30 31 32 33 34 35 36 37 38 39 40 41 42 43 44 45 46 47 48 49 50

000
ASUS45 KBOI 290810
RWRID

IDAHO REGIONAL WEATHER ROUNDUP
NATIONAL WEATHER SERVICE BOISE ID
200 AM MDT WED MAR 29 2017

NOTE: "FAIR" INDICATES FEW OR NO CLOUDS BELOW 12000 FEET
WITH NO SIGNIFICANT WEATHER AND/OR OBSTRUCTIONS TO VISIBILITY

IDZ012-014-290900-
SOUTHWEST IDAHO


CITY           SKY/WX    TMP DP  RH WIND       PRES   REMARKS
BOISE          CLEAR     40  32  73 SE7       30.24F
CALDWELL       CLEAR     37  32  82 E3        30.25F
MOUNTAIN HOME  CLEAR     38  33  82 CALM      30.25S
$$

IDZ016-017-290900-
SOUTHCENTRAL IDAHO


CITY           SKY/WX    TMP DP  RH WIND       PRES   REMARKS
BURLEY         CLEAR     38  27  64 SW9       30.23F WCI  31
JEROME         CLEAR     36  30  79 S8        30.25S WCI  30
TWIN FALLS     CLEAR     35  29  78 S13       30.25F WCI  26
$$

IDZ019>023-290900-
SOUTHEAST IDAHO


CITY           SKY/WX    TMP DP  RH WIND       PRES   REMARKS
IDAHO FALLS    CLEAR     37  28  70 S15       30.22F WCI  28
POCATELLO      CLEAR     39  28  64 SW14      30.24F WCI  31
REXBURG        CLEAR     36  28  73 S13       30.21F WCI  27
$$

IDZ006-010-011-018-031-032-290900-
CENTRAL IDAHO MOUNTAINS


CITY           SKY/WX    TMP DP  RH WIND       PRES   REMARKS
MCCALL         CLOUDY    34  28  79 CALM      30.21F
HAILEY         CLEAR     32  27  80 NW6       30.22F WCI  26
STANLEY          N/A     24  20  84 CALM      30.25R
SALMON         CLOUDY    34  25  69 CALM      30.19R
CHALLIS        PTCLDY    33  22  63 NW5       30.18S WCI  29
$$

IDZ002-004-006-007-026-290900-
NORTHERN IDAHO


CITY           SKY/WX    TMP DP  RH WIND       PRES   REMARKS
LEWISTON       CLOUDY    47  39  74 E7        30.20F
LOWELL           N/A     42  39  89 N3        30.26F
COEUR D`ALENE  LGT RAIN  41  38  89 SE8       30.18S
MULLAN PASS    FOG       28  28 100 VRB6      30.12F VSB 1/2 WCI  22
$$



USA.gov is the U.S. government's official web portal to all federal, state and local government web resources and services.